GEC8291 HECA-EDDF

Flight info

Callsign GEC8291
Flight time 3h 47m
Altitude 34000
Route MENKU L617 NOZ L551 ANTAR DCT RIGRO DCT FSK UL608 DISOR DCT LONTA UL608 DOLEV/N0472F360 DCT LURID DCT ZAG DCT BEDOX DCT SIMBA DCT AKINI T161 DEBHI DEBHI1B
Aircraft B77L/H-SDE2E3FGHIJ1J3J4J5M1P2RWXYZ/LB1D1

Departure

Time 2026-05-06 15:05
Airport Cairo International Airport (HECA)

Arrival

Time 2026-05-06 18:52
Airport Frankfurt Main Airport (EDDF)
Time Latitude Longitude Altitude Speed Heading
2026-05-06 14:10 30.12555 31.40741 393 ft 0 kts 253°
2026-05-06 14:50 30.12558 31.40751 392 ft 2 kts 253°
2026-05-06 14:50 30.12562 31.40767 392 ft 2 kts 252°
2026-05-06 14:50 30.12566 31.40782 392 ft 0 kts 253°
2026-05-06 14:51 30.12570 31.40794 392 ft 2 kts 245°
2026-05-06 14:51 30.12578 31.40808 392 ft 2 kts 225°
2026-05-06 14:51 30.12589 31.40819 392 ft 2 kts 210°
2026-05-06 14:51 30.12603 31.40827 392 ft 2 kts 194°
2026-05-06 14:52 30.12618 31.40829 392 ft 2 kts 178°
2026-05-06 14:52 30.12632 31.40827 392 ft 0 kts 163°
2026-05-06 14:52 30.12627 31.40828 392 ft 3 kts 164°
2026-05-06 14:52 30.12617 31.40832 392 ft 0 kts 164°
2026-05-06 14:55 30.12616 31.40832 392 ft 0 kts 163°
2026-05-06 14:55 30.12604 31.40836 392 ft 2 kts 163°
2026-05-06 14:55 30.12578 31.40845 392 ft 4 kts 162°
2026-05-06 14:56 30.12535 31.40860 392 ft 7 kts 162°
2026-05-06 14:56 30.12475 31.40882 392 ft 10 kts 162°
2026-05-06 14:56 30.12396 31.40912 392 ft 13 kts 161°
2026-05-06 14:56 30.12299 31.40949 392 ft 16 kts 161°
2026-05-06 14:57 30.12185 31.40991 393 ft 17 kts 162°
2026-05-06 14:57 30.12070 31.41032 393 ft 17 kts 162°
2026-05-06 14:57 30.11956 31.41073 393 ft 17 kts 162°
2026-05-06 14:57 30.11843 31.41113 393 ft 16 kts 162°
2026-05-06 14:58 30.11741 31.41149 393 ft 14 kts 162°
2026-05-06 14:58 30.11651 31.41182 393 ft 11 kts 162°
2026-05-06 14:58 30.11582 31.41206 393 ft 9 kts 162°
2026-05-06 14:58 30.11516 31.41230 393 ft 10 kts 162°
2026-05-06 14:59 30.11444 31.41256 393 ft 11 kts 162°
2026-05-06 14:59 30.11364 31.41268 393 ft 12 kts 201°
2026-05-06 14:59 30.11301 31.41198 393 ft 13 kts 228°
2026-05-06 14:59 30.11238 31.41116 393 ft 14 kts 229°
2026-05-06 15:00 30.11169 31.41024 393 ft 16 kts 229°
2026-05-06 15:00 30.11092 31.40920 393 ft 18 kts 229°
2026-05-06 15:00 30.11005 31.40803 393 ft 19 kts 229°
2026-05-06 15:00 30.10913 31.40678 393 ft 21 kts 229°
2026-05-06 15:01 30.10813 31.40545 393 ft 22 kts 229°
2026-05-06 15:01 30.10709 31.40408 393 ft 23 kts 229°
2026-05-06 15:01 30.10603 31.40266 393 ft 23 kts 229°
2026-05-06 15:01 30.10496 31.40123 393 ft 23 kts 229°
2026-05-06 15:02 30.10391 31.39983 393 ft 21 kts 229°
2026-05-06 15:02 30.10296 31.39856 393 ft 19 kts 229°
2026-05-06 15:02 30.10211 31.39744 393 ft 17 kts 229°
2026-05-06 15:02 30.10144 31.39657 393 ft 11 kts 222°
2026-05-06 15:03 30.10074 31.39650 393 ft 10 kts 151°
2026-05-06 15:03 30.10024 31.39703 393 ft 9 kts 123°
2026-05-06 15:03 30.10003 31.39782 393 ft 10 kts 93°
2026-05-06 15:03 30.10003 31.39856 393 ft 6 kts 67°
2026-05-06 15:04 30.10015 31.39875 393 ft 0 kts 49°
2026-05-06 15:04 30.10046 31.39916 393 ft 27 kts 49°
2026-05-06 15:04 30.10332 31.40304 393 ft 98 kts 49°
2026-05-06 15:05 30.10926 31.41093 394 ft 160 kts 49°
2026-05-06 15:05 30.11760 31.42204 615 ft 192 kts 48°
2026-05-06 15:05 30.12680 31.43352 1273 ft 202 kts 35°
2026-05-06 15:05 30.13963 31.43923 2067 ft 199 kts
2026-05-06 15:06 30.15339 31.43563 2429 ft 217 kts 329°
2026-05-06 15:06 30.16513 31.42366 2837 ft 235 kts 316°
2026-05-06 15:06 30.17689 31.40972 3372 ft 250 kts 315°
2026-05-06 15:06 30.18921 31.39503 4123 ft 256 kts 315°
2026-05-06 15:07 30.20145 31.38040 4915 ft 259 kts 315°
2026-05-06 15:07 30.21406 31.36534 5703 ft 262 kts 315°
2026-05-06 15:07 30.22667 31.35027 6484 ft 264 kts 315°
2026-05-06 15:07 30.23941 31.33504 7224 ft 267 kts 315°
2026-05-06 15:08 30.25242 31.31948 7907 ft 271 kts 315°
2026-05-06 15:08 30.26566 31.30363 8644 ft 273 kts 315°
2026-05-06 15:08 30.27890 31.28778 9326 ft 276 kts 314°
2026-05-06 15:08 30.29238 31.27164 9969 ft 280 kts 314°
2026-05-06 15:09 30.30598 31.25535 10511 ft 288 kts 314°
2026-05-06 15:09 30.32028 31.23820 10878 ft 304 kts 314°
2026-05-06 15:09 30.33532 31.22017 11255 ft 319 kts 314°
2026-05-06 15:09 30.35105 31.20129 11638 ft 334 kts 314°
2026-05-06 15:10 30.36750 31.18154 12067 ft 348 kts 313°
2026-05-06 15:10 30.38476 31.16081 12510 ft 362 kts 313°
2026-05-06 15:10 30.40246 31.13953 13043 ft 372 kts 313°
2026-05-06 15:10 30.42050 31.11785 13748 ft 377 kts 313°
2026-05-06 15:11 30.43879 31.09584 14536 ft 380 kts 313°
2026-05-06 15:11 30.45704 31.07386 15358 ft 384 kts 313°
2026-05-06 15:11 30.47558 31.05153 16187 ft 387 kts 313°
2026-05-06 15:11 30.49418 31.02911 16955 ft 390 kts 312°
2026-05-06 15:12 30.51306 31.00634 17684 ft 394 kts 312°
2026-05-06 15:12 30.53223 30.98321 18418 ft 399 kts 312°
2026-05-06 15:12 30.55136 30.96010 19141 ft 403 kts 312°
2026-05-06 15:12 30.57100 30.93638 19857 ft 407 kts 312°
2026-05-06 15:13 30.59052 30.91278 20511 ft 411 kts 312°
2026-05-06 15:13 30.61048 30.88863 21171 ft 416 kts 312°
2026-05-06 15:13 30.63062 30.86424 21887 ft 418 kts 311°
2026-05-06 15:13 30.65063 30.84001 22569 ft 421 kts 311°
2026-05-06 15:14 30.67109 30.81521 23153 ft 426 kts 311°
2026-05-06 15:14 30.69144 30.79053 23739 ft 430 kts 311°
2026-05-06 15:14 30.71232 30.76519 24348 ft 433 kts 311°
2026-05-06 15:14 30.73323 30.73980 24936 ft 436 kts 311°
2026-05-06 15:15 30.75420 30.71432 25526 ft 439 kts 311°
2026-05-06 15:15 30.77539 30.68855 26102 ft 442 kts 311°
2026-05-06 15:15 30.79655 30.66280 26653 ft 446 kts 311°
2026-05-06 15:15 30.81788 30.63682 27182 ft 449 kts 311°
2026-05-06 15:16 30.83969 30.61026 27761 ft 452 kts 311°
2026-05-06 15:16 30.86147 30.58370 28312 ft 455 kts 311°
2026-05-06 15:16 30.88328 30.55709 28841 ft 459 kts 311°
2026-05-06 15:16 30.90521 30.53032 29371 ft 462 kts 311°
2026-05-06 15:17 30.92759 30.50298 30026 ft 462 kts 311°
2026-05-06 15:17 30.94954 30.47616 30828 ft 458 kts 311°
2026-05-06 15:17 30.97122 30.44966 31631 ft 453 kts 311°
2026-05-06 15:17 30.99286 30.42319 32352 ft 449 kts 311°
2026-05-06 15:18 31.01435 30.39687 32948 ft 447 kts 311°
2026-05-06 15:18 31.03581 30.37056 33466 ft 447 kts 311°
2026-05-06 15:18 31.05710 30.34444 33947 ft 446 kts 310°
2026-05-06 15:19 31.09290 30.28612 34053 ft 440 kts 295°
2026-05-06 15:19 31.11452 30.21946 34066 ft 437 kts 287°
2026-05-06 15:20 31.13281 30.15231 34067 ft 437 kts 287°
2026-05-06 15:20 31.15130 30.08431 34084 ft 437 kts 287°
2026-05-06 15:21 31.17019 30.01708 34066 ft 438 kts 291°
2026-05-06 15:21 31.20234 29.95671 34069 ft 443 kts 309°
2026-05-06 15:22 31.25040 29.91157 34077 ft 450 kts 327°
2026-05-06 15:22 31.30575 29.87675 34079 ft 452 kts 328°
2026-05-06 15:23 31.36107 29.84226 34074 ft 451 kts 328°
2026-05-06 15:23 31.41642 29.80766 34083 ft 450 kts 328°
2026-05-06 15:24 31.47172 29.77300 34081 ft 451 kts 328°
2026-05-06 15:24 31.52690 29.73836 34080 ft 450 kts 328°
2026-05-06 15:25 31.58228 29.70353 34081 ft 450 kts 328°
2026-05-06 15:25 31.63712 29.66900 34085 ft 449 kts 328°
2026-05-06 15:26 31.69231 29.63419 34091 ft 449 kts 328°
2026-05-06 15:26 31.74750 29.59934 34082 ft 449 kts 328°
2026-05-06 15:27 31.80235 29.56465 34081 ft 450 kts 328°
2026-05-06 15:27 31.85738 29.52980 34091 ft 448 kts 328°
2026-05-06 15:28 31.91248 29.49486 34094 ft 448 kts 328°
2026-05-06 15:28 31.96747 29.45994 34095 ft 449 kts 328°
2026-05-06 15:29 32.02251 29.42494 34088 ft 448 kts 328°
2026-05-06 15:29 32.07732 29.39004 34088 ft 448 kts 329°
2026-05-06 15:30 32.13243 29.35490 34091 ft 449 kts 329°
2026-05-06 15:30 32.18723 29.31991 34099 ft 449 kts 328°
2026-05-06 15:31 32.24222 29.28474 34099 ft 448 kts 328°
2026-05-06 15:31 32.29707 29.24958 34098 ft 448 kts 328°
2026-05-06 15:32 32.37909 29.19692 34097 ft 447 kts 328°
2026-05-06 15:32 32.43374 29.16177 34097 ft 448 kts 328°
2026-05-06 15:33 32.48850 29.12650 34097 ft 447 kts 328°
2026-05-06 15:33 32.54320 29.09122 34097 ft 448 kts 328°
2026-05-06 15:34 32.59846 29.05553 34096 ft 447 kts 328°
2026-05-06 15:34 32.65333 29.02004 34096 ft 448 kts 328°
2026-05-06 15:35 32.70793 28.98468 34095 ft 447 kts 328°
2026-05-06 15:35 32.76298 28.94897 34095 ft 447 kts 328°
2026-05-06 15:36 32.81747 28.91358 34093 ft 447 kts 328°
2026-05-06 15:36 32.87205 28.87808 34094 ft 447 kts 328°
2026-05-06 15:37 32.92679 28.84242 34092 ft 446 kts 328°
2026-05-06 15:37 32.98129 28.80688 34093 ft 447 kts 328°
2026-05-06 15:38 33.03620 28.77101 34091 ft 446 kts 328°
2026-05-06 15:38 33.09055 28.73546 34089 ft 447 kts 328°
2026-05-06 15:39 33.14517 28.69968 34094 ft 446 kts 328°
2026-05-06 15:39 33.19955 28.66400 34089 ft 446 kts 328°
2026-05-06 15:40 33.25404 28.62820 34087 ft 446 kts 328°
2026-05-06 15:40 33.30837 28.59246 34087 ft 446 kts 328°
2026-05-06 15:41 33.36254 28.55677 34085 ft 445 kts 328°
2026-05-06 15:41 33.41711 28.52077 34087 ft 445 kts 328°
2026-05-06 15:42 33.47121 28.48502 34089 ft 445 kts 328°
2026-05-06 15:42 33.52517 28.44932 34084 ft 444 kts 328°
2026-05-06 15:43 33.57944 28.41335 34078 ft 443 kts 328°
2026-05-06 15:43 33.63347 28.37750 34084 ft 444 kts 328°
2026-05-06 15:44 33.68766 28.34148 34089 ft 444 kts 328°
2026-05-06 15:44 33.74165 28.30556 34092 ft 443 kts 328°
2026-05-06 15:45 33.79527 28.26982 34086 ft 442 kts 328°
2026-05-06 15:45 33.85013 28.23598 34093 ft 443 kts 331°
2026-05-06 15:46 33.90546 28.20310 34088 ft 443 kts 330°
2026-05-06 15:46 33.96073 28.17006 34085 ft 442 kts 330°
2026-05-06 15:47 34.01583 28.13699 34089 ft 442 kts 330°
2026-05-06 15:47 34.07108 28.10374 34086 ft 440 kts 330°
2026-05-06 15:48 34.12621 28.07049 34092 ft 441 kts 330°
2026-05-06 15:48 34.18097 28.03740 34096 ft 440 kts 330°
2026-05-06 15:49 34.23599 28.00411 34085 ft 439 kts 330°
2026-05-06 15:49 34.29028 27.97120 34087 ft 440 kts 330°
2026-05-06 15:50 34.34474 27.93814 34083 ft 438 kts 330°
2026-05-06 15:50 34.39947 27.90488 34079 ft 438 kts 330°
2026-05-06 15:51 34.45404 27.87165 34075 ft 438 kts 331°
2026-05-06 15:51 34.50818 27.83865 34076 ft 437 kts 331°
2026-05-06 15:52 34.56249 27.80548 34071 ft 438 kts 331°
2026-05-06 15:52 34.61682 27.77226 34065 ft 437 kts 331°
2026-05-06 15:53 34.67114 27.73900 34070 ft 437 kts 331°
2026-05-06 15:53 34.72563 27.70558 34064 ft 435 kts 331°
2026-05-06 15:54 34.77974 27.67234 34064 ft 437 kts 331°
2026-05-06 15:54 34.83373 27.63913 34058 ft 435 kts 331°
2026-05-06 15:55 34.88790 27.60576 34061 ft 436 kts 331°
2026-05-06 15:55 34.94182 27.57249 34061 ft 437 kts 331°
2026-05-06 15:56 34.99607 27.53898 34055 ft 435 kts 331°
2026-05-06 15:56 35.05049 27.50530 34055 ft 437 kts 331°
2026-05-06 15:57 35.10454 27.47181 34054 ft 435 kts 331°
2026-05-06 15:57 35.15866 27.43821 34060 ft 436 kts 331°
2026-05-06 15:58 35.21273 27.40461 34061 ft 435 kts 331°
2026-05-06 15:58 35.26670 27.37101 34058 ft 435 kts 331°
2026-05-06 15:59 35.32066 27.33737 34068 ft 435 kts 330°
2026-05-06 15:59 35.37484 27.30354 34062 ft 434 kts 330°
2026-05-06 16:00 35.42866 27.26989 34064 ft 435 kts 330°
2026-05-06 16:00 35.48277 27.23599 34067 ft 435 kts 330°
2026-05-06 16:01 35.53635 27.20239 34061 ft 434 kts 330°
2026-05-06 16:01 35.59027 27.16852 34064 ft 435 kts 330°
2026-05-06 16:02 35.64418 27.13460 34061 ft 435 kts 330°
2026-05-06 16:02 35.69812 27.10061 34060 ft 435 kts 330°
2026-05-06 16:03 35.75182 27.06673 34061 ft 435 kts 330°
2026-05-06 16:03 35.80554 27.03278 34055 ft 435 kts 330°
2026-05-06 16:04 35.85935 26.99871 34053 ft 434 kts 330°
2026-05-06 16:04 35.91331 26.96450 34053 ft 435 kts 330°
2026-05-06 16:05 35.96684 26.93052 34052 ft 434 kts 330°
2026-05-06 16:05 36.02057 26.89635 34051 ft 434 kts 330°
2026-05-06 16:06 36.07409 26.86226 34046 ft 432 kts 330°
2026-05-06 16:06 36.12773 26.82804 34055 ft 434 kts 330°
2026-05-06 16:07 36.18130 26.79382 34060 ft 433 kts 330°
2026-05-06 16:07 36.23487 26.75954 34058 ft 433 kts 330°
2026-05-06 16:08 36.28809 26.72543 34058 ft 432 kts 330°
2026-05-06 16:08 36.34180 26.69096 34058 ft 432 kts 330°
2026-05-06 16:09 36.39500 26.65676 34058 ft 432 kts 330°
2026-05-06 16:09 36.44863 26.62223 34060 ft 432 kts 331°
2026-05-06 16:10 36.50196 26.58784 34061 ft 434 kts 331°
2026-05-06 16:10 36.55531 26.55338 34057 ft 431 kts 331°
2026-05-06 16:11 36.60875 26.51881 34057 ft 433 kts 330°
2026-05-06 16:11 36.66167 26.48452 34057 ft 431 kts 331°
2026-05-06 16:12 36.71489 26.44999 34058 ft 433 kts 331°
2026-05-06 16:12 36.76849 26.41515 34059 ft 433 kts 331°
2026-05-06 16:13 36.82173 26.38049 34059 ft 432 kts 331°
2026-05-06 16:13 36.87520 26.34563 34063 ft 432 kts 330°
2026-05-06 16:14 36.92825 26.31099 34066 ft 432 kts 330°
2026-05-06 16:14 36.98138 26.27623 34066 ft 432 kts 330°
2026-05-06 16:15 37.03463 26.24135 34065 ft 432 kts 330°
2026-05-06 16:15 37.08779 26.20647 34069 ft 433 kts 330°
2026-05-06 16:16 37.14123 26.17134 34076 ft 432 kts 330°
2026-05-06 16:16 37.19454 26.13626 34075 ft 431 kts 330°
2026-05-06 16:17 37.24735 26.10144 34072 ft 432 kts 330°
2026-05-06 16:17 37.30051 26.06634 34071 ft 431 kts 330°
2026-05-06 16:18 37.35371 26.03114 34066 ft 431 kts 330°
2026-05-06 16:18 37.40694 25.99588 34071 ft 431 kts 330°
2026-05-06 16:19 37.45991 25.96073 34072 ft 431 kts 330°
2026-05-06 16:19 37.51297 25.92546 34066 ft 431 kts 330°
2026-05-06 16:20 37.56589 25.89023 34063 ft 430 kts 330°
2026-05-06 16:20 37.61779 25.85272 34063 ft 429 kts 327°
2026-05-06 16:21 37.66883 25.81311 34062 ft 431 kts 327°
2026-05-06 16:21 37.71989 25.77343 34055 ft 429 kts 327°
2026-05-06 16:22 37.77108 25.73359 34046 ft 429 kts 327°
2026-05-06 16:22 37.82183 25.69403 34051 ft 428 kts 327°
2026-05-06 16:23 37.87262 25.65439 34055 ft 431 kts 327°
2026-05-06 16:23 37.92334 25.61473 34041 ft 429 kts 327°
2026-05-06 16:24 37.97427 25.57485 34037 ft 430 kts 327°
2026-05-06 16:24 38.02492 25.53512 34038 ft 430 kts 327°
2026-05-06 16:25 38.07571 25.49521 34034 ft 430 kts 327°
2026-05-06 16:25 38.12662 25.45514 34043 ft 430 kts 327°
2026-05-06 16:26 38.17733 25.41516 34043 ft 430 kts 327°
2026-05-06 16:26 38.22823 25.37497 34042 ft 430 kts 327°
2026-05-06 16:27 38.27916 25.33469 34045 ft 430 kts 327°
2026-05-06 16:27 38.32973 25.29462 34044 ft 431 kts 327°
2026-05-06 16:28 38.38051 25.25433 34044 ft 430 kts 327°
2026-05-06 16:28 38.43130 25.21395 34038 ft 431 kts 327°
2026-05-06 16:29 38.48217 25.17345 34040 ft 431 kts 327°
2026-05-06 16:29 38.53297 25.13293 34036 ft 431 kts 327°
2026-05-06 16:30 38.56685 25.10587 34034 ft 432 kts 327°
2026-05-06 16:30 38.63477 25.05153 34033 ft 431 kts 327°
2026-05-06 16:31 38.68538 25.01095 34033 ft 431 kts 327°
2026-05-06 16:31 38.73650 24.96991 34031 ft 431 kts 327°
2026-05-06 16:32 38.78731 24.92903 34030 ft 431 kts 327°
2026-05-06 16:32 38.83777 24.88838 34029 ft 431 kts 327°
2026-05-06 16:33 38.88848 24.84745 34029 ft 431 kts 327°
2026-05-06 16:34 38.96480 24.78571 34027 ft 432 kts 327°
2026-05-06 16:34 39.01534 24.74475 34027 ft 430 kts 327°
2026-05-06 16:35 39.06598 24.70363 34026 ft 431 kts 327°
2026-05-06 16:35 39.11696 24.66215 34035 ft 431 kts 327°
2026-05-06 16:36 39.16775 24.62077 34034 ft 431 kts 327°
2026-05-06 16:36 39.21828 24.57953 34033 ft 431 kts 327°
2026-05-06 16:37 39.26879 24.53823 34033 ft 432 kts 327°
2026-05-06 16:37 39.31976 24.49649 34032 ft 432 kts 327°
2026-05-06 16:38 39.37046 24.45489 34031 ft 431 kts 327°
2026-05-06 16:38 39.42097 24.41337 34030 ft 431 kts 327°
2026-05-06 16:39 39.47158 24.37170 34030 ft 433 kts 327°
2026-05-06 16:39 39.52234 24.32983 34036 ft 431 kts 326°
2026-05-06 16:40 39.57309 24.28790 34034 ft 431 kts 326°
2026-05-06 16:40 39.62349 24.24619 34034 ft 432 kts 326°
2026-05-06 16:41 39.67418 24.20416 34033 ft 432 kts 326°
2026-05-06 16:41 39.72500 24.16194 34032 ft 431 kts 326°
2026-05-06 16:42 39.77536 24.12004 34032 ft 432 kts 326°
2026-05-06 16:42 39.82608 24.07776 34031 ft 432 kts 326°
2026-05-06 16:43 39.87674 24.03546 34030 ft 433 kts 326°
2026-05-06 16:43 39.92718 23.99326 34029 ft 431 kts 326°
2026-05-06 16:44 39.97791 23.95075 34028 ft 433 kts 326°
2026-05-06 16:44 40.02864 23.90817 34027 ft 432 kts 326°
2026-05-06 16:45 40.07903 23.86579 34024 ft 433 kts 326°
2026-05-06 16:45 40.12965 23.82313 34028 ft 434 kts 326°
2026-05-06 16:46 40.18016 23.78049 34026 ft 433 kts 326°
2026-05-06 16:46 40.23102 23.73749 34026 ft 434 kts 326°
2026-05-06 16:47 40.28159 23.69465 34023 ft 434 kts 326°
2026-05-06 16:47 40.33216 23.65174 34027 ft 434 kts 326°
2026-05-06 16:48 40.38270 23.60876 34032 ft 435 kts 326°
2026-05-06 16:48 40.43321 23.56575 34039 ft 434 kts 326°
2026-05-06 16:49 40.48398 23.52243 34046 ft 435 kts 326°
2026-05-06 16:49 40.53458 23.47917 34051 ft 435 kts 326°
2026-05-06 16:50 40.58532 23.43571 34050 ft 436 kts 326°
2026-05-06 16:50 40.63618 23.39208 34049 ft 436 kts 326°
2026-05-06 16:51 40.68676 23.34860 34046 ft 437 kts 325°
2026-05-06 16:51 40.73781 23.30464 34048 ft 437 kts 325°
2026-05-06 16:52 40.78841 23.26098 34045 ft 437 kts 325°
2026-05-06 16:52 40.83920 23.21708 34045 ft 438 kts 325°
2026-05-06 16:53 40.89020 23.17291 34045 ft 438 kts 325°
2026-05-06 16:53 40.94110 23.12875 34044 ft 438 kts 325°
2026-05-06 16:54 40.99203 23.08449 34044 ft 438 kts 325°
2026-05-06 16:54 41.04296 23.04013 34043 ft 439 kts 325°
2026-05-06 16:55 41.09255 22.99442 34034 ft 437 kts 318°
2026-05-06 16:55 41.13384 22.93542 34034 ft 438 kts 310°
2026-05-06 16:56 41.17343 22.87386 34030 ft 437 kts 310°
2026-05-06 16:56 41.21263 22.81251 34031 ft 438 kts 310°
2026-05-06 16:57 41.25188 22.75087 34021 ft 438 kts 310°
2026-05-06 16:57 41.29273 22.69113 34025 ft 438 kts 312°
2026-05-06 16:58 41.33382 22.63137 34027 ft 439 kts 312°
2026-05-06 16:58 41.37483 22.57145 34039 ft 439 kts 311°
2026-05-06 16:59 41.41569 22.51151 34051 ft 439 kts 311°
2026-05-06 16:59 41.45662 22.45131 34058 ft 439 kts 311°
2026-05-06 17:00 41.49741 22.39118 34064 ft 439 kts 311°
2026-05-06 17:00 41.53825 22.33084 34065 ft 439 kts 310°
2026-05-06 17:01 41.57888 22.27066 34059 ft 440 kts 310°
2026-05-06 17:01 41.61974 22.21004 34050 ft 440 kts 310°
2026-05-06 17:02 41.66060 22.14927 34049 ft 440 kts 310°
2026-05-06 17:02 41.70138 22.08850 34041 ft 441 kts 310°
2026-05-06 17:03 41.74229 22.02742 34034 ft 439 kts 310°
2026-05-06 17:03 41.78315 21.96628 34027 ft 441 kts 310°
2026-05-06 17:04 41.82388 21.90521 34026 ft 441 kts 310°
2026-05-06 17:04 41.86453 21.84415 34027 ft 443 kts 310°
2026-05-06 17:05 41.90553 21.78240 34023 ft 441 kts 310°
2026-05-06 17:05 41.94626 21.72096 34016 ft 442 kts 310°
2026-05-06 17:06 41.98672 21.65978 34020 ft 443 kts 310°
2026-05-06 17:06 42.02769 21.59773 34014 ft 441 kts 310°
2026-05-06 17:07 42.06815 21.53628 34020 ft 443 kts 310°
2026-05-06 17:07 42.10896 21.47420 34037 ft 442 kts 310°
2026-05-06 17:08 42.14974 21.41203 34046 ft 442 kts 310°
2026-05-06 17:08 42.19001 21.34924 34044 ft 444 kts 308°
2026-05-06 17:09 42.22994 21.28576 34049 ft 444 kts 308°
2026-05-06 17:09 42.26969 21.22251 34046 ft 445 kts 308°
2026-05-06 17:10 42.30965 21.15886 34057 ft 444 kts 308°
2026-05-06 17:10 42.34948 21.09530 34067 ft 445 kts 308°
2026-05-06 17:11 42.38924 21.03172 34074 ft 445 kts 308°
2026-05-06 17:11 42.42925 20.96762 34075 ft 445 kts 308°
2026-05-06 17:12 42.46883 20.90406 34062 ft 445 kts 308°
2026-05-06 17:12 42.50881 20.83974 34060 ft 446 kts 308°
2026-05-06 17:13 42.54860 20.77557 34056 ft 446 kts 308°
2026-05-06 17:13 42.58860 20.71093 34050 ft 445 kts 308°
2026-05-06 17:14 42.62833 20.64657 34052 ft 448 kts 308°
2026-05-06 17:14 42.66823 20.58181 34047 ft 448 kts 308°
2026-05-06 17:15 42.70803 20.51706 34044 ft 448 kts 308°
2026-05-06 17:15 42.74790 20.45207 34058 ft 448 kts 308°
2026-05-06 17:16 42.78763 20.38714 34077 ft 447 kts 308°
2026-05-06 17:16 42.82768 20.32172 34085 ft 448 kts 309°
2026-05-06 17:17 42.87347 20.26343 34096 ft 451 kts 316°
2026-05-06 17:17 42.92056 20.20705 34092 ft 450 kts 315°
2026-05-06 17:18 42.96728 20.15088 34082 ft 451 kts 316°
2026-05-06 17:18 43.01461 20.09381 34085 ft 456 kts 315°
2026-05-06 17:18 43.03845 20.06499 34411 ft 459 kts 316°
2026-05-06 17:19 43.06211 20.03637 35222 ft 454 kts 316°
2026-05-06 17:19 43.08524 20.00837 35972 ft 450 kts 316°
2026-05-06 17:19 43.10881 19.97978 36071 ft 452 kts 316°
2026-05-06 17:20 43.15578 19.92274 36071 ft 446 kts 315°
2026-05-06 17:20 43.20201 19.86645 36074 ft 449 kts 315°
2026-05-06 17:20 43.22522 19.83814 35823 ft 448 kts 316°
2026-05-06 17:21 43.24841 19.80983 36003 ft 446 kts 316°
2026-05-06 17:21 43.29505 19.75281 36048 ft 450 kts 315°
2026-05-06 17:22 43.34176 19.69558 36067 ft 449 kts 316°
2026-05-06 17:22 43.38852 19.63815 36075 ft 451 kts 315°
2026-05-06 17:23 43.43549 19.58036 36065 ft 450 kts 315°
2026-05-06 17:23 43.48190 19.52312 36054 ft 452 kts 316°
2026-05-06 17:24 43.52840 19.46565 36045 ft 451 kts 316°
2026-05-06 17:24 43.57497 19.40797 36058 ft 451 kts 315°
2026-05-06 17:25 43.62168 19.34998 36039 ft 451 kts 315°
2026-05-06 17:25 43.66813 19.29221 36027 ft 451 kts 315°
2026-05-06 17:26 43.71464 19.23422 36012 ft 451 kts 315°
2026-05-06 17:26 43.76093 19.17637 35997 ft 451 kts 315°
2026-05-06 17:27 43.80732 19.11828 36010 ft 451 kts 315°
2026-05-06 17:27 43.85382 19.05994 36014 ft 451 kts 315°
2026-05-06 17:28 43.89268 19.01108 36018 ft 450 kts 315°
2026-05-06 17:28 43.94668 18.94302 36025 ft 451 kts 315°
2026-05-06 17:29 43.99303 18.88447 36024 ft 450 kts 315°
2026-05-06 17:29 44.03895 18.82633 36017 ft 450 kts 315°
2026-05-06 17:30 44.08538 18.76742 36006 ft 451 kts 315°
2026-05-06 17:30 44.13152 18.70875 35994 ft 450 kts 315°
2026-05-06 17:31 44.17774 18.64984 36001 ft 451 kts 315°
2026-05-06 17:31 44.22386 18.59094 36000 ft 451 kts 315°
2026-05-06 17:32 44.27000 18.53187 35992 ft 450 kts 314°
2026-05-06 17:32 44.31579 18.47312 35986 ft 451 kts 314°
2026-05-06 17:33 44.36214 18.41353 35970 ft 451 kts 314°
2026-05-06 17:33 44.40795 18.35449 35969 ft 451 kts 314°
2026-05-06 17:34 44.45407 18.29492 35973 ft 452 kts 313°
2026-05-06 17:34 44.50021 18.23520 35961 ft 451 kts 313°
2026-05-06 17:35 44.54653 18.17509 35947 ft 452 kts 313°
2026-05-06 17:35 44.59247 18.11535 35943 ft 452 kts 313°
2026-05-06 17:36 44.66157 18.02524 35930 ft 452 kts 313°
2026-05-06 17:36 44.70742 17.96527 35920 ft 454 kts 313°
2026-05-06 17:37 44.75323 17.90522 35922 ft 453 kts 313°
2026-05-06 17:37 44.79942 17.84454 35910 ft 453 kts 313°
2026-05-06 17:38 44.84560 17.78373 35895 ft 454 kts 313°
2026-05-06 17:38 44.89165 17.72296 35913 ft 455 kts 313°
2026-05-06 17:39 44.93778 17.66193 35908 ft 456 kts 312°
2026-05-06 17:39 44.96084 17.63138 36152 ft 454 kts 312°
2026-05-06 17:39 44.98362 17.60114 35949 ft 459 kts 312°
2026-05-06 17:40 45.02958 17.54008 35896 ft 454 kts 312°
2026-05-06 17:40 45.07599 17.47825 35906 ft 456 kts 312°
2026-05-06 17:41 45.12199 17.41682 35896 ft 458 kts 312°
2026-05-06 17:41 45.16774 17.35391 35890 ft 458 kts 310°
2026-05-06 17:42 45.21258 17.29031 35899 ft 457 kts 310°
2026-05-06 17:42 45.25755 17.22650 35897 ft 459 kts 310°
2026-05-06 17:43 45.30286 17.16215 35902 ft 459 kts 310°
2026-05-06 17:43 45.34808 17.09779 35900 ft 459 kts 309°
2026-05-06 17:44 45.39297 17.03377 35894 ft 461 kts 310°
2026-05-06 17:44 45.43840 16.96885 35889 ft 460 kts 309°
2026-05-06 17:45 45.48329 16.90452 35884 ft 464 kts 310°
2026-05-06 17:45 45.52908 16.83879 35890 ft 462 kts 310°
2026-05-06 17:46 45.57424 16.77378 35888 ft 462 kts 310°
2026-05-06 17:46 45.61936 16.70869 35883 ft 462 kts 310°
2026-05-06 17:47 45.66463 16.64321 35884 ft 462 kts 310°
2026-05-06 17:47 45.70958 16.57803 35883 ft 464 kts 310°
2026-05-06 17:48 45.75488 16.51220 35881 ft 463 kts 310°
2026-05-06 17:48 45.79998 16.44649 35887 ft 463 kts 310°
2026-05-06 17:49 45.84530 16.38028 35889 ft 465 kts 310°
2026-05-06 17:49 45.89055 16.31403 35897 ft 464 kts 309°
2026-05-06 17:50 45.93774 16.25073 35899 ft 467 kts 313°
2026-05-06 17:50 45.98634 16.18886 35891 ft 470 kts 313°
2026-05-06 17:51 46.03528 16.12607 35892 ft 469 kts 313°
2026-05-06 17:51 46.08356 16.06374 35893 ft 471 kts 313°
2026-05-06 17:52 46.13224 16.00067 35881 ft 468 kts 313°
2026-05-06 17:52 46.18083 15.93746 35877 ft 470 kts 313°
2026-05-06 17:53 46.22906 15.87456 35878 ft 468 kts 313°
2026-05-06 17:53 46.27739 15.81120 35881 ft 467 kts 312°
2026-05-06 17:54 46.32470 15.74687 35879 ft 467 kts 311°
2026-05-06 17:54 46.37185 15.68255 35884 ft 465 kts 311°
2026-05-06 17:55 46.41901 15.61810 35889 ft 466 kts 311°
2026-05-06 17:55 46.46592 15.55387 35902 ft 465 kts 311°
2026-05-06 17:56 46.51318 15.48904 35905 ft 465 kts 311°
2026-05-06 17:56 46.56010 15.42450 35901 ft 464 kts 311°
2026-05-06 17:57 46.60688 15.36001 35878 ft 465 kts 311°
2026-05-06 17:57 46.65402 15.29485 35881 ft 463 kts 310°
2026-05-06 17:58 46.70065 15.23026 35863 ft 462 kts 310°
2026-05-06 17:58 46.74768 15.16490 35892 ft 462 kts 310°
2026-05-06 17:59 46.79424 15.10009 35875 ft 460 kts 310°
2026-05-06 17:59 46.84044 15.03558 35857 ft 460 kts 310°
2026-05-06 18:00 46.88661 14.97095 35864 ft 462 kts 310°
2026-05-06 18:00 46.93273 14.90625 35863 ft 459 kts 310°
2026-05-06 18:01 46.97892 14.84128 35854 ft 460 kts 310°
2026-05-06 18:01 47.02489 14.77645 35865 ft 460 kts 310°
2026-05-06 18:02 47.07118 14.71102 35868 ft 459 kts 310°
2026-05-06 18:02 47.11723 14.64574 35880 ft 461 kts 310°
2026-05-06 18:03 47.16312 14.58055 35861 ft 459 kts 310°
2026-05-06 18:03 47.20899 14.51518 35861 ft 461 kts 310°
2026-05-06 18:04 47.25483 14.44973 35847 ft 460 kts 309°
2026-05-06 18:04 47.30071 14.38402 35850 ft 463 kts 309°
2026-05-06 18:05 47.34697 14.31765 35843 ft 460 kts 309°
2026-05-06 18:05 47.39292 14.25149 35839 ft 462 kts 309°
2026-05-06 18:06 47.43902 14.18498 35852 ft 462 kts 308°
2026-05-06 18:06 47.48465 14.11898 35823 ft 461 kts 308°
2026-05-06 18:07 47.53039 14.05262 35824 ft 464 kts 308°
2026-05-06 18:07 47.57641 13.98573 35811 ft 461 kts 308°
2026-05-06 18:08 47.62225 13.91889 35815 ft 463 kts 308°
2026-05-06 18:08 47.66297 13.85937 35816 ft 464 kts 308°
2026-05-06 18:09 47.70853 13.79264 35811 ft 462 kts 308°
2026-05-06 18:09 47.75435 13.72532 35792 ft 464 kts 308°
2026-05-06 18:10 47.79994 13.65819 35767 ft 462 kts 308°
2026-05-06 18:10 47.84576 13.59049 35758 ft 468 kts 308°
2026-05-06 18:11 47.88420 13.53364 35758 ft 463 kts 308°
2026-05-06 18:11 47.93746 13.45457 35746 ft 467 kts 308°
2026-05-06 18:12 47.98352 13.38604 35738 ft 464 kts 307°
2026-05-06 18:12 48.02911 13.31799 35725 ft 467 kts 307°
2026-05-06 18:13 48.07496 13.24939 35723 ft 466 kts 307°
2026-05-06 18:13 48.12015 13.18021 35705 ft 458 kts 301°
2026-05-06 18:14 48.15471 13.10072 35700 ft 455 kts 292°
2026-05-06 18:14 48.18630 13.01889 35711 ft 449 kts 292°
2026-05-06 18:15 48.21731 12.93760 35707 ft 452 kts 292°
2026-05-06 18:15 48.24821 12.85530 35701 ft 450 kts 292°
2026-05-06 18:16 48.27891 12.77330 35712 ft 452 kts 292°
2026-05-06 18:16 48.30977 12.69069 35715 ft 452 kts 292°
2026-05-06 18:17 48.34056 12.60802 35715 ft 451 kts 292°
2026-05-06 18:17 48.37112 12.52574 35720 ft 453 kts 292°
2026-05-06 18:18 48.40185 12.44278 35726 ft 450 kts 292°
2026-05-06 18:18 48.43239 12.36001 35727 ft 453 kts 292°
2026-05-06 18:19 48.46273 12.27759 35734 ft 450 kts 292°
2026-05-06 18:19 48.49320 12.19451 35739 ft 452 kts 292°
2026-05-06 18:20 48.52352 12.11159 35731 ft 452 kts 292°
2026-05-06 18:20 48.55384 12.02841 35731 ft 453 kts 292°
2026-05-06 18:21 48.58398 11.94550 35728 ft 453 kts 292°
2026-05-06 18:21 48.61439 11.86151 35741 ft 453 kts 292°
2026-05-06 18:22 48.64454 11.77800 35751 ft 455 kts 292°
2026-05-06 18:22 48.67483 11.69383 35753 ft 455 kts 292°
2026-05-06 18:23 48.70491 11.60998 35754 ft 455 kts 292°
2026-05-06 18:23 48.73519 11.52549 35762 ft 457 kts 292°
2026-05-06 18:24 48.76556 11.44095 35753 ft 457 kts 292°
2026-05-06 18:24 48.79594 11.35604 35771 ft 458 kts 292°
2026-05-06 18:25 48.82605 11.27168 35767 ft 455 kts 291°
2026-05-06 18:25 48.86417 11.19230 35770 ft 470 kts 309°
2026-05-06 18:26 48.91163 11.12554 35201 ft 468 kts 310°
2026-05-06 18:26 48.93597 11.09177 34407 ft 476 kts 310°
2026-05-06 18:26 48.95222 11.06915 33793 ft 479 kts 310°
2026-05-06 18:27 48.98513 11.02325 32699 ft 483 kts 311°
2026-05-06 18:27 49.00974 10.98881 31909 ft 485 kts 312°
2026-05-06 18:27 49.03492 10.95350 31097 ft 488 kts 313°
2026-05-06 18:27 49.05983 10.91852 30375 ft 487 kts 313°
2026-05-06 18:28 49.08439 10.88399 29898 ft 480 kts 313°
2026-05-06 18:28 49.10861 10.84985 29437 ft 473 kts 313°
2026-05-06 18:28 49.13280 10.81567 28957 ft 467 kts 313°
2026-05-06 18:28 49.15684 10.78166 28464 ft 461 kts 313°
2026-05-06 18:29 49.18005 10.74877 27971 ft 455 kts 313°
2026-05-06 18:29 49.20381 10.71490 27471 ft 468 kts 312°
2026-05-06 18:29 49.22642 10.67984 26984 ft 470 kts 310°
2026-05-06 18:29 49.24912 10.64376 26443 ft 466 kts 310°
2026-05-06 18:30 49.27122 10.60863 25909 ft 461 kts 311°
2026-05-06 18:30 49.29361 10.57306 25381 ft 455 kts 310°
2026-05-06 18:30 49.31531 10.53862 24851 ft 451 kts 311°
2026-05-06 18:30 49.33707 10.50407 24301 ft 447 kts 311°
2026-05-06 18:31 49.35790 10.47005 23757 ft 441 kts 307°
2026-05-06 18:31 49.37631 10.43233 23295 ft 436 kts 302°
2026-05-06 18:31 49.39349 10.39484 22881 ft 430 kts 302°
2026-05-06 18:31 49.41052 10.35751 22459 ft 427 kts 302°
2026-05-06 18:32 49.42759 10.32004 22018 ft 426 kts 302°
2026-05-06 18:32 49.44448 10.28292 21589 ft 423 kts 301°
2026-05-06 18:32 49.45998 10.24882 21186 ft 419 kts 302°
2026-05-06 18:32 49.47725 10.21077 20750 ft 417 kts 302°
2026-05-06 18:33 49.49366 10.17460 20339 ft 413 kts 302°
2026-05-06 18:33 49.51017 10.13813 19912 ft 410 kts 302°
2026-05-06 18:33 49.52637 10.10231 19499 ft 408 kts 302°
2026-05-06 18:33 49.54230 10.06702 19079 ft 406 kts 302°
2026-05-06 18:34 49.55846 10.03121 18655 ft 404 kts 302°
2026-05-06 18:34 49.57447 9.99567 18239 ft 401 kts 302°
2026-05-06 18:34 49.59006 9.96100 17839 ft 399 kts 302°
2026-05-06 18:34 49.60598 9.92557 17433 ft 397 kts 302°
2026-05-06 18:35 49.62141 9.89115 17025 ft 394 kts 302°
2026-05-06 18:35 49.63685 9.85669 16632 ft 391 kts 302°
2026-05-06 18:35 49.65221 9.82237 16225 ft 388 kts 302°
2026-05-06 18:35 49.66762 9.78789 15820 ft 385 kts 302°
2026-05-06 18:36 49.68276 9.75397 15450 ft 383 kts 302°
2026-05-06 18:36 49.69768 9.72048 15043 ft 380 kts 302°
2026-05-06 18:36 49.71262 9.68691 14653 ft 377 kts 302°
2026-05-06 18:36 49.72738 9.65372 14283 ft 375 kts 302°
2026-05-06 18:37 49.74205 9.62068 13905 ft 372 kts 302°
2026-05-06 18:37 49.75174 9.59884 13650 ft 370 kts 302°
2026-05-06 18:37 49.77106 9.55520 13147 ft 367 kts 302°
2026-05-06 18:37 49.78531 9.52298 12774 ft 364 kts 302°
2026-05-06 18:38 49.79958 9.49067 12392 ft 363 kts 302°
2026-05-06 18:38 49.81368 9.45870 12030 ft 361 kts 302°
2026-05-06 18:38 49.82784 9.42659 11667 ft 358 kts 302°
2026-05-06 18:38 49.84172 9.39504 11291 ft 356 kts 302°
2026-05-06 18:39 49.85556 9.36315 10920 ft 353 kts 299°
2026-05-06 18:39 49.86597 9.32913 10749 ft 348 kts 287°
2026-05-06 18:39 49.87315 9.29316 10741 ft 350 kts 284°
2026-05-06 18:40 49.88625 9.22367 10598 ft 321 kts 284°
2026-05-06 18:40 49.89233 9.19152 10440 ft 307 kts 284°
2026-05-06 18:40 49.89834 9.15986 10113 ft 302 kts 284°
2026-05-06 18:40 49.90427 9.12860 9683 ft 302 kts 284°
2026-05-06 18:41 49.90819 9.10791 9417 ft 301 kts 284°
2026-05-06 18:41 49.91590 9.06735 9124 ft 291 kts 284°
2026-05-06 18:41 49.92157 9.03741 8871 ft 284 kts 284°
2026-05-06 18:41 49.92794 9.00897 8635 ft 279 kts 290°
2026-05-06 18:42 49.93630 8.98194 8389 ft 275 kts 297°
2026-05-06 18:42 49.94635 8.95693 8095 ft 273 kts 303°
2026-05-06 18:42 49.95808 8.93378 7711 ft 275 kts 309°
2026-05-06 18:42 49.97147 8.91297 7388 ft 274 kts 316°
2026-05-06 18:43 49.98660 8.89474 7046 ft 275 kts 323°
2026-05-06 18:43 50.00286 8.87993 6703 ft 275 kts 333°
2026-05-06 18:43 50.02166 8.87350 6301 ft 280 kts
2026-05-06 18:43 50.04030 8.88110 5948 ft 282 kts 28°
2026-05-06 18:44 50.05480 8.90090 5595 ft 283 kts 55°
2026-05-06 18:44 50.06219 8.92919 5202 ft 283 kts 83°
2026-05-06 18:44 50.06240 8.95932 4863 ft 280 kts 90°
2026-05-06 18:44 50.06395 8.98920 4558 ft 277 kts 73°
2026-05-06 18:45 50.07304 9.01531 4170 ft 274 kts 45°
2026-05-06 18:45 50.08851 9.03115 3959 ft 263 kts 15°
2026-05-06 18:45 50.10632 9.03308 3942 ft 253 kts 345°
2026-05-06 18:45 50.11716 9.02762 3954 ft 244 kts 335°
2026-05-06 18:46 50.13643 9.01081 3940 ft 235 kts 310°
2026-05-06 18:46 50.14463 8.98812 3952 ft 244 kts 283°
2026-05-06 18:46 50.14448 8.96176 3947 ft 246 kts 253°
2026-05-06 18:46 50.13574 8.93898 3959 ft 247 kts 227°
2026-05-06 18:47 50.12300 8.92065 3946 ft 248 kts 222°
2026-05-06 18:47 50.11250 8.89956 3936 ft 245 kts 249°
2026-05-06 18:47 50.10710 8.87444 3908 ft 241 kts 253°
2026-05-06 18:47 50.10231 8.85061 3879 ft 232 kts 253°
2026-05-06 18:48 50.09715 8.82686 3564 ft 227 kts 252°
2026-05-06 18:48 50.09192 8.80414 3273 ft 218 kts 252°
2026-05-06 18:48 50.08696 8.78321 3005 ft 199 kts 252°
2026-05-06 18:48 50.08223 8.76340 2771 ft 189 kts 251°
2026-05-06 18:49 50.07781 8.74493 2538 ft 176 kts 252°
2026-05-06 18:49 50.07369 8.72743 2296 ft 162 kts 254°
2026-05-06 18:49 50.07109 8.71089 1905 ft 152 kts 262°
2026-05-06 18:49 50.06937 8.69528 1518 ft 145 kts 259°
2026-05-06 18:50 50.06696 8.68016 1347 ft 143 kts 257°
2026-05-06 18:50 50.06400 8.66532 1211 ft 142 kts 251°
2026-05-06 18:50 50.06039 8.65086 1132 ft 143 kts 250°
2026-05-06 18:50 50.05695 8.63628 986 ft 143 kts 252°
2026-05-06 18:51 50.05362 8.62173 816 ft 142 kts 254°
2026-05-06 18:51 50.05039 8.60736 625 ft 140 kts 248°
2026-05-06 18:51 50.04667 8.59303 485 ft 142 kts 249°
2026-05-06 18:51 50.04331 8.57898 361 ft 133 kts 250°
2026-05-06 18:52 50.04051 8.56751 360 ft 93 kts 249°
2026-05-06 18:52 50.03896 8.56103 360 ft 54 kts 250°
2026-05-06 18:52 50.03812 8.55758 360 ft 40 kts 250°